Location: Presov
(49.0000°N, 21.2500°E)
Time: 01:13:30
(UTC+02:00)

S-56A Canister/Altair - Visible Passes

Search period start: 19 April 2021 00:00
Search period end: 29 April 2021 00:00
Orbit: 632 x 2500 km, 38.9° (Epoch: 18 April)

Date Brightness Start Highest point End Pass type
(mag) Time Alt. Az. Time Alt. Az. Time Alt. Az.
19 Apr 9.3 02:48:45 14° SE 02:48:45 14° SE 02:49:37 10° SE visible
19 Apr 8.9 04:46:11 10° SW 04:48:26 14° SSW 04:50:45 10° S visible
20 Apr 8.8 04:15:25 16° SSW 04:16:00 16° SSW 04:18:43 10° SSE visible
21 Apr 8.9 03:44:43 17° S 03:44:43 17° S 03:46:41 10° SSE visible
22 Apr 9.4 03:14:08 12° SSE 03:14:08 12° SSE 03:14:36 10° SSE visible
22 Apr 10.3 22:25:26 10° SSW 22:27:54 16° SSW 22:27:54 16° SSW visible
23 Apr 9.8 21:52:18 10° SSW 21:58:21 22° S 21:58:21 22° S visible
24 Apr 9.6 21:19:12 10° SSW 21:26:45 23° SSE 21:28:39 21° SE visible
24 Apr 9.9 23:22:35 10° SW 23:26:09 22° SW 23:26:09 22° SW visible
25 Apr 10.0 20:46:06 10° SSW 20:53:55 22° SSE 20:58:46 14° ESE visible
25 Apr 9.3 22:49:16 10° SW 22:56:16 33° SSW 22:56:16 33° SSW visible
26 Apr 10.2 20:13:02 10° SSW 20:21:03 21° SSE 20:27:19 10° ESE visible
26 Apr 9.0 22:15:53 10° SW 22:24:59 36° S 22:26:10 34° SSE visible
27 Apr 10.1 00:21:03 10° WSW 00:23:39 19° WSW 00:23:39 19° WSW visible
27 Apr 9.3 21:42:30 10° SW 21:52:10 36° SSE 21:55:51 25° SE visible
27 Apr 9.4 23:47:39 10° WSW 23:53:19 31° SW 23:53:19 31° SW visible
28 Apr 9.5 21:09:05 10° SW 21:19:18 35° SSE 21:25:22 15° ESE visible
28 Apr 8.9 23:14:11 10° WSW 23:22:50 41° SSW 23:22:50 41° SSW visible
